STARLINK-1609, 47621

Orbit data source: Space-Track

STARLINK-1609, 47621 is a payload satellite owned by SpaceX/Seattle (US) in LEO that was launched on Tue, 16 Feb 2021 UTC via an FALCON 9 launch vehicle from the Air Force Eastern Test Range (AFETR). Payload-class satellites include a variety of spacecraft equipped with specific instruments for various scientific and technological missions. These include communications satellites like Starlink; space stations such as the ISS; scientific satellites like the Hubble; Earth observation satellites from companies like Planet Labs, Umbra, and HawkEye 360; GPS; miniature CubeSats for education and research; and military/defense satellites.

Loading next visibility...
Identifier
47621, 2021-012B
Orbit
LEO
Country
Flag of USUS
Related business
Manufacturer
SpaceX/Seattle
Mission
Partially operational Commercial Communications
Bus & Motor
STARLINK, Unknown motor
Mass
260 kg wet, ~248 kg dry
Launch date (UTC)
2021-02-16 (5 years ago)
Launch vehicle
FALCON 9
Launch site
Air Force Eastern Test Range (AFETR)
Object type
Payload
Rocket body
Debris
Shape & HBR
Box + 1 Pan, 10.1 m
Radar Cross Section
13.562 m², Large (>1 m²)

Expand to show TLE details & history
Last TLE update: 2 days ago

TLE from 2 days ago
0 STARLINK-1609
1 47621U 21012B   26171.38749916  .00075732  00000-0  14640-2 0  9991
2 47621  53.1585 300.9243 0002467 281.6487  78.4244 15.47119690295913
Epoch: 2026-06-20T09:17Z
TLE epoch observation values (Epoch: 2026-06-20T09:17:59.927Z)
Latitude
-0.00003°
Longitude
-107.17827°
Altitude
425.727 km
Speed
7.657 km/s
True Right ascension
20h 03m 41s
True Declination
0° 00' 00"
Sunlit
Object was in full shadow at epoch
Visualization orbit readout
Latitude
Unknown
Longitude
Unknown
Altitude
Unknown
Speed
Unknown
Apparent Right ascension
Unknown
Apparent Declination
Unknown
Sunlit
N/A
Visualization observer readout
Local Sidereal Time
00:55:52
Azimuth
Unknown
Elevation
Unknown
Doppler factor
Unknown
Orbital elements
Apogee altitude
427.094 km
Perigee altitude
423.737 km
Semi-major axis
6,803.552 km
Eccentricity
0.00025
Inclination
53.1585°
RAAN
300.9243°
Arg. of periapsis
281.6487°
True anomaly
78.4521°
Mean anomaly
78.4244°
Eccentric anomaly
78.43825°
Mean motion
3.86758 °/min
Orbital period
93.08 mins
BSTAR
0.001464
Loading maneuver chart data...
Computing Atmospheric mass density...

Documentation

Showing up to 5 results
|